Hourly Weather Dzhusinsk

Today, 18 May, Tuesday

Time Temperature Precipitation Wind Pressure Humidity
00:00 +19°C° 0.1 mm 2 mps 734 mmHg 57%
01:00 +19°C° 0.1 mm 2 mps 733 mmHg 56%
02:00 +19°C° 0 mm 2 mps 733 mmHg 58%
03:00 +18°C° 0 mm 3 mps 733 mmHg 60%
04:00 +18°C° 0 mm 3 mps 733 mmHg 61%
05:00 +19°C° 0 mm 3 mps 733 mmHg 57%
06:00 +21°C° 0 mm 3 mps 733 mmHg 52%
07:00 +22°C° 0 mm 3 mps 733 mmHg 48%
08:00 +25°C° 0 mm 3 mps 733 mmHg 43%
09:00 +27°C° 0 mm 3 mps 733 mmHg 37%
10:00 +28°C° 0 mm 2 mps 733 mmHg 32%
11:00 +29°C° 0 mm 2 mps 732 mmHg 29%
12:00 +30°C° 0 mm 1 mps 732 mmHg 26%
13:00 +32°C° 0 mm 1 mps 732 mmHg 22%
14:00 +31°C° 0.1 mm 2 mps 731 mmHg 25%
15:00 +30°C° 0.1 mm 3 mps 731 mmHg 27%
16:00 +29°C° 0.1 mm 4 mps 731 mmHg 29%
17:00 +27°C° 0.1 mm 4 mps 731 mmHg 36%
18:00 +25°C° 0.1 mm 3 mps 731 mmHg 43%
19:00 +22°C° 0.1 mm 3 mps 731 mmHg 50%
20:00 +21°C° 0.1 mm 2 mps 731 mmHg 52%
21:00 +21°C° 0.1 mm 2 mps 730 mmHg 53%
22:00 +21°C° 0.1 mm 1 mps 730 mmHg 54%
23:00 +20°C° 0 mm 2 mps 730 mmHg 56%

Tomorrow, 19 May, Wednesday

Time Temperature Precipitation Wind Pressure Humidity
00:00 +19°C° 0 mm 3 mps 730 mmHg 58%
01:00 +19°C° 0 mm 4 mps 730 mmHg 60%
02:00 +17°C° 0.2 mm 5 mps 730 mmHg 64%
03:00 +16°C° 0.2 mm 6 mps 730 mmHg 68%
04:00 +15°C° 0.2 mm 7 mps 730 mmHg 72%
05:00 +16°C° 0.1 mm 7 mps 731 mmHg 72%
06:00 +16°C° 0.1 mm 8 mps 731 mmHg 72%
07:00 +17°C° 0.1 mm 9 mps 732 mmHg 72%
08:00 +18°C° 0 mm 9 mps 732 mmHg 66%
09:00 +19°C° 0 mm 9 mps 732 mmHg 59%
10:00 +21°C° 0 mm 9 mps 733 mmHg 53%
11:00 +22°C° 0 mm 8 mps 733 mmHg 48%
12:00 +23°C° 0 mm 8 mps 733 mmHg 43%
13:00 +23°C° 0 mm 8 mps 733 mmHg 38%
14:00 +23°C° 0 mm 8 mps 733 mmHg 36%
15:00 +23°C° 0 mm 8 mps 733 mmHg 34%
16:00 +23°C° 0 mm 8 mps 733 mmHg 32%
17:00 +22°C° 0 mm 7 mps 733 mmHg 34%
18:00 +21°C° 0 mm 7 mps 733 mmHg 36%
19:00 +20°C° 0 mm 6 mps 733 mmHg 39%
20:00 +19°C° 0 mm 6 mps 734 mmHg 40%
21:00 +17°C° 0 mm 5 mps 734 mmHg 42%
22:00 +15°C° 0 mm 4 mps 735 mmHg 43%
23:00 +15°C° 0 mm 5 mps 735 mmHg 45%

Day after tomorrow, 20 May, Thursday

Time Temperature Precipitation Wind Pressure Humidity
00:00 +14°C° 0 mm 5 mps 735 mmHg 46%
01:00 +14°C° 0 mm 5 mps 735 mmHg 48%
02:00 +13°C° 0 mm 4 mps 735 mmHg 51%
03:00 +12°C° 0 mm 4 mps 735 mmHg 53%
04:00 +11°C° 0 mm 4 mps 735 mmHg 56%
05:00 +13°C° 0 mm 4 mps 736 mmHg 53%
06:00 +14°C° 0 mm 5 mps 736 mmHg 50%
07:00 +16°C° 0 mm 5 mps 736 mmHg 47%
08:00 +17°C° 0 mm 6 mps 736 mmHg 43%
09:00 +19°C° 0 mm 6 mps 737 mmHg 38%
10:00 +21°C° 0 mm 6 mps 737 mmHg 33%
11:00 +22°C° 0 mm 6 mps 737 mmHg 31%
12:00 +22°C° 0 mm 6 mps 736 mmHg 29%
13:00 +23°C° 0 mm 6 mps 736 mmHg 27%
14:00 +23°C° 0 mm 6 mps 736 mmHg 27%
15:00 +24°C° 0 mm 6 mps 736 mmHg 26%
16:00 +24°C° 0 mm 6 mps 736 mmHg 26%
17:00 +23°C° 0 mm 5 mps 736 mmHg 30%
18:00 +22°C° 0 mm 5 mps 736 mmHg 34%
19:00 +21°C° 0 mm 4 mps 736 mmHg 38%
20:00 +19°C° 0 mm 4 mps 736 mmHg 41%
21:00 +18°C° 0 mm 4 mps 736 mmHg 44%
22:00 +15°C° 0 mm 4 mps 736 mmHg 47%
23:00 +15°C° 0 mm 4 mps 736 mmHg 49%

21 May, Friday

Time Temperature Precipitation Wind Pressure Humidity
00:00 +14°C° 0 mm 3 mps 736 mmHg 51%
01:00 +14°C° 0 mm 3 mps 736 mmHg 52%
02:00 +13°C° 0 mm 3 mps 736 mmHg 53%
03:00 +13°C° 0 mm 3 mps 736 mmHg 53%
04:00 +12°C° 0 mm 3 mps 736 mmHg 54%
05:00 +14°C° 0 mm 4 mps 736 mmHg 50%
06:00 +17°C° 0 mm 4 mps 737 mmHg 45%
07:00 +17°C° 0 mm 5 mps 737 mmHg 41%
08:00 +20°C° 0 mm 5 mps 737 mmHg 37%
09:00 +21°C° 0 mm 5 mps 737 mmHg 32%
10:00 +23°C° 0 mm 5 mps 737 mmHg 28%
11:00 +25°C° 0 mm 5 mps 737 mmHg 27%
12:00 +26°C° 0 mm 5 mps 737 mmHg 25%
13:00 +27°C° 0 mm 4 mps 737 mmHg 23%
14:00 +27°C° 0 mm 4 mps 737 mmHg 23%
15:00 +27°C° 0 mm 4 mps 737 mmHg 23%
16:00 +27°C° 0 mm 4 mps 737 mmHg 22%
17:00 +26°C° 0 mm 3 mps 737 mmHg 26%
18:00 +25°C° 0 mm 3 mps 737 mmHg 30%
19:00 +24°C° 0 mm 3 mps 737 mmHg 33%
20:00 +21°C° 0 mm 3 mps 737 mmHg 35%
21:00 +20°C° 0 mm 3 mps 737 mmHg 36%
22:00 +19°C° 0 mm 3 mps 737 mmHg 38%
23:00 +18°C° 0 mm 3 mps 737 mmHg 40%

22 May, Saturday

Time Temperature Precipitation Wind Pressure Humidity
00:00 +17°C° 0 mm 3 mps 737 mmHg 41%
01:00 +17°C° 0 mm 3 mps 737 mmHg 42%
02:00 +16°C° 0 mm 3 mps 737 mmHg 44%
03:00 +16°C° 0 mm 3 mps 737 mmHg 45%
04:00 +16°C° 0 mm 3 mps 737 mmHg 47%
05:00 +17°C° 0 mm 3 mps 738 mmHg 44%
06:00 +19°C° 0 mm 3 mps 738 mmHg 42%
07:00 +21°C° 0 mm 2 mps 738 mmHg 39%
08:00 +23°C° 0 mm 2 mps 738 mmHg 35%
09:00 +25°C° 0 mm 2 mps 738 mmHg 30%
10:00 +26°C° 0 mm 2 mps 739 mmHg 26%
11:00 +27°C° 0 mm 2 mps 738 mmHg 25%
12:00 +28°C° 0 mm 2 mps 738 mmHg 24%
13:00 +29°C° 0 mm 2 mps 738 mmHg 23%
14:00 +29°C° 0 mm 2 mps 738 mmHg 23%
15:00 +29°C° 0 mm 2 mps 738 mmHg 23%
16:00 +29°C° 0 mm 2 mps 738 mmHg 23%
17:00 +28°C° 0 mm 2 mps 738 mmHg 27%
18:00 +27°C° 0 mm 2 mps 738 mmHg 30%
19:00 +26°C° 0 mm 2 mps 738 mmHg 33%
20:00 +25°C° 0 mm 2 mps 737 mmHg 35%
21:00 +23°C° 0 mm 2 mps 737 mmHg 36%
22:00 +22°C° 0 mm 1 mps 737 mmHg 37%
23:00 +21°C° 0 mm 1 mps 737 mmHg 38%

23 May, Sunday

Time Temperature Precipitation Wind Pressure Humidity
00:00 +21°C° 0 mm 1 mps 737 mmHg 40%
01:00 +20°C° 0 mm 1 mps 737 mmHg 41%
02:00 +20°C° 0 mm 1 mps 737 mmHg 43%
03:00 +19°C° 0 mm 1 mps 737 mmHg 44%
04:00 +17°C° 0 mm 0 mps 737 mmHg 46%
05:00 +19°C° 0 mm 0 mps 738 mmHg 42%
06:00 +21°C° 0 mm 0 mps 738 mmHg 39%
07:00 +22°C° 0 mm 0 mps 738 mmHg 35%
08:00 +26°C° 0 mm 1 mps 738 mmHg 32%
09:00 +27°C° 0 mm 1 mps 738 mmHg 29%
10:00 +29°C° 0 mm 1 mps 738 mmHg 25%
11:00 +29°C° 0 mm 1 mps 738 mmHg 24%
12:00 +30°C° 0 mm 2 mps 738 mmHg 23%
13:00 +31°C° 0 mm 2 mps 738 mmHg 21%
14:00 +31°C° 0 mm 2 mps 737 mmHg 21%
15:00 +31°C° 0 mm 2 mps 737 mmHg 21%
16:00 +32°C° 0 mm 2 mps 737 mmHg 21%
17:00 +30°C° 0 mm 2 mps 737 mmHg 25%
18:00 +29°C° 0 mm 2 mps 737 mmHg 29%
19:00 +28°C° 0 mm 3 mps 737 mmHg 32%
20:00 +27°C° 0 mm 2 mps 737 mmHg 33%
21:00 +25°C° 0 mm 2 mps 737 mmHg 35%
22:00 +24°C° 0 mm 2 mps 737 mmHg 36%
23:00 +24°C° 0 mm 2 mps 737 mmHg 39%
Show more